This demonstration page uses our WeatherBlox Daily Observations layout. Learn more.

Left ArrowRight Arrow

Hourly Observations for November 28, 2018

Temp ( °F °C ) Dew Point ( °F °C ) Humidity (%) Winds ( mph kmh ) Pressure ( in mb ) Visibility ( mi km ) Precip ( " mm )
12:52 am 00:52 Cloudy 22 -5.6 15 -9.4 75 75 SE 10 17 30.04 1017 10 16 0.00 0.00
1:52 am 01:52 Cloudy 22 -5.6 15 -9.4 75 75 SSE 13 20 30.01 1016 10 16 0.00 0.00
2:52 am 02:52 Cloudy 23 -5 16 -8.9 74 74 SSE 12 19 29.98 1015 10 16 0.00 0.00
3:11 am 03:11 Cloudy 23 -5 16 -8.9 74 74 SSE 14 22 30.00 1016 10 16 0.00 0.00
3:52 am 03:52 Cloudy 23 -5 16 -8.9 74 74 SSE 13 20 29.96 1015 10 16 0.00 0.00
4:52 am 04:52 Cloudy 23 -5 17 -8.3 78 78 SSE 12 19 29.93 1014 10 16 0.00 0.00
5:52 am 05:52 Cloudy 23 -5 15 -9.4 72 72 SSE 13 20 29.92 1013 10 16 0.00 0.00
6:52 am 06:52 Cloudy 23 -5 14 -10 68 68 SSE 16 26 29.93 1014 10 16 0.00 0.00
7:52 am 07:52 Cloudy 23 -5 14 -10 68 68 SSE 17 28 29.93 1013 10 16 0.00 0.00
8:52 am 08:52 Cloudy 24 -4.4 15 -9.4 68 68 SSE 13 20 29.92 1013 10 16 0.00 0.00
9:52 am 09:52 Cloudy 25 -3.9 15 -9.4 66 66 SE 20 31 29.89 1012 10 16 0.00 0.00
10:52 am 10:52 Cloudy 27 -2.8 17 -8.3 66 66 SE 17 28 29.88 1012 10 16 0.00 0.00
11:52 am 11:52 Mostly Cloudy 28 -2.2 17 -8.3 63 63 SE 16 26 29.84 1010 10 16 0.00 0.00
12:52 pm 12:52 Mostly Cloudy 30 -1.1 18 -7.8 61 61 SE 14 22 29.79 1009 10 16 0.00 0.00
1:52 pm 13:52 Mostly Cloudy 31 -0.6 19 -7.2 61 61 SSE 17 28 29.77 1008 10 16 0.00 0.00
2:52 pm 14:52 Cloudy 31 -0.6 20 -6.7 64 64 SSE 16 26 29.75 1007 10 16 0.00 0.00
3:52 pm 15:52 Mostly Cloudy 31 -0.6 20 -6.7 64 64 SSE 9 15 29.78 1008 10 16 0.00 0.00
4:52 pm 16:52 Mostly Cloudy 30 -1.1 20 -6.7 66 66 SSE 8 13 29.79 1009 10 16 0.00 0.00
5:52 pm 17:52 Mostly Cloudy 28 -2.2 20 -6.7 72 72 SSE 10 17 29.80 1009 10 16 0.00 0.00
6:52 pm 18:52 Cloudy 30 -1.1 22 -5.6 72 72 ESE 5 7 29.80 1009 10 16 0.00 0.00
7:52 pm 19:52 Mostly Clear 26 -3.3 20 -6.7 78 78 SE 5 7 29.81 1010 10 16 0.00 0.00
8:52 pm 20:52 Mostly Cloudy 25 -3.9 20 -6.7 81 81 SE 5 7 29.81 1010 10 16 0.00 0.00
9:52 pm 21:52 Mostly Cloudy 26 -3.3 21 -6.1 81 81 SSE 5 7 29.80 1009 10 16 0.00 0.00
10:52 pm 22:52 Mostly Clear 24 -4.4 20 -6.7 84 84 ESE 6 9 29.79 1009 10 16 0.00 0.00
11:52 pm 23:52 Partly Cloudy 24 -4.4 19 -7.2 81 81 ESE 5 7 29.80 1009 10 16 0.00 0.00

Powered by AerisWeather